Location: NJAA Observatory
(40.6819°N, 74.8979°W)
Time: 22:13:40
(UTC-04:00)

Vanguard 1 - All Passes

Search period start: 27 August 2015 00:00
Search period end: 06 September 2015 00:00
Orbit: 649 x 3835 km, 34.2° (Epoch: 26 August)

Date Brightness Start Highest point End Pass type
(mag) Time Alt. Az. Time Alt. Az. Time Alt. Az.
27 Aug - 01:07:53 10° W 01:16:19 62° S 01:32:14 10° ESE visible
27 Aug - 03:27:54 10° W 03:39:19 46° SSW 03:58:06 10° SE visible
27 Aug - 05:51:18 10° W 06:03:40 23° SW 06:18:17 10° S visible
27 Aug - 20:53:08 10° S 20:56:46 19° SE 21:01:45 10° E visible
27 Aug - 23:09:58 10° WSW 23:16:10 53° SSE 23:27:22 10° E visible
28 Aug - 01:28:55 10° W 01:37:37 59° S 01:53:49 10° ESE visible
28 Aug - 03:49:19 10° W 04:00:45 39° SSW 04:18:40 10° SE visible
28 Aug - 06:14:48 10° WSW 06:25:15 17° SW 06:35:58 10° S daylight
28 Aug - 21:13:09 10° SSW 21:17:28 26° SSE 21:23:44 10° E visible
28 Aug - 23:30:50 10° WSW 23:37:16 57° S 23:49:02 10° E visible
29 Aug - 01:49:59 10° W 01:58:56 54° SSW 02:15:13 10° ESE visible
29 Aug - 04:10:57 10° W 04:22:14 32° SSW 04:38:46 10° SSE visible
29 Aug - 06:41:42 10° SW 06:46:54 11° SW 06:50:03 10° SSW daylight
29 Aug - 21:33:34 10° SW 21:38:16 34° SSE 21:45:28 10° E visible
29 Aug - 23:51:46 10° WSW 23:58:24 58° S 00:10:40 10° ESE visible
30 Aug - 02:11:09 10° W 02:20:16 47° SSW 02:36:23 10° SE visible
30 Aug - 04:32:57 10° W 04:43:44 26° SSW 04:58:16 10° SSE visible
30 Aug - 19:39:44 10° SSE 19:40:10 10° SE 19:40:52 10° SE daylight
30 Aug - 21:54:12 10° SW 21:59:09 42° SSE 22:07:04 10° E visible
31 Aug - 00:12:45 10° W 00:19:36 57° S 00:32:14 10° ESE visible
31 Aug - 02:32:25 10° W 02:41:38 41° SSW 02:57:13 10° SE visible
31 Aug - 04:55:37 10° WSW 05:05:17 19° SSW 05:16:52 10° S visible
31 Aug - 19:58:04 10° S 20:00:53 16° SSE 20:04:20 10° ESE visible
31 Aug - 22:14:58 10° WSW 22:20:07 48° SSE 22:28:37 10° E visible
01 Sep - 00:33:46 10° W 00:40:48 52° S 00:53:40 10° ESE visible
01 Sep - 02:53:50 10° W 03:03:01 34° SSW 03:17:41 10° SSE visible
01 Sep - 05:19:52 10° WSW 05:26:55 13° SW 05:33:39 10° SSW visible
01 Sep - 20:18:03 10° SSW 20:21:40 23° SSE 20:26:16 10° E visible
01 Sep - 22:35:51 10° WSW 22:41:09 52° S 22:50:08 10° E visible
02 Sep - 00:54:50 10° W 01:02:02 47° SSW 01:14:56 10° SE visible
02 Sep - 03:15:33 10° WSW 03:24:28 27° SSW 03:37:37 10° SSE visible
02 Sep - 20:38:28 10° SW 20:42:30 30° SSE 20:47:53 10° E visible
02 Sep - 22:56:46 10° WSW 23:02:14 52° S 23:11:36 10° ESE visible
03 Sep - 01:15:59 10° W 01:23:18 40° SSW 01:35:58 10° SE visible
03 Sep - 03:37:45 10° WSW 03:45:58 20° SSW 03:56:49 10° S visible
03 Sep - 20:59:08 10° SW 21:03:24 37° SSE 21:09:21 10° E visible
03 Sep - 23:17:44 10° WSW 23:23:21 50° S 23:33:00 10° ESE visible
04 Sep - 01:37:17 10° W 01:44:36 34° SSW 01:56:39 10° SE visible
04 Sep - 04:01:00 10° WSW 04:07:32 15° SSW 04:14:44 10° S visible
04 Sep - 19:02:34 10° S 19:05:06 15° SSE 19:07:53 10° ESE daylight
04 Sep - 21:19:56 10° WSW 21:24:21 43° S 21:30:46 10° E visible
04 Sep - 23:38:46 10° W 23:44:30 45° S 23:54:16 10° ESE visible
05 Sep - 01:58:48 10° WSW 02:05:57 27° SSW 02:16:54 10° SSE visible
05 Sep - 19:22:36 10° SSW 19:25:58 21° SSE 19:29:41 10° ESE daylight
05 Sep - 21:40:50 10° WSW 21:45:22 46° S 21:52:07 10° ESE visible
